Weather History for Spokane Fairchild, WA

Change the Weather History Date:

Tuesday, January 14, 2014

  Actual Average Record
Temperature  
Mean Temperature 38 °F -  
Max Temperature 44 °F 31 °F 48 °F (1999)
Min Temperature 31 °F 22 °F -3 °F (2007)
Degree Days  
Heating Degree Days 27    
Moisture  
Dew Point 33 °F    
Average Humidity 92    
Maximum Humidity 100    
Minimum Humidity 75    
Precipitation  
Precipitation 0.00 in - - ()
Sea Level Pressure  
Sea Level Pressure 30.53 in    
Wind  
Wind Speed 6 mph (South)    
Max Wind Speed 12 mph    
Max Gust Speed -    
Visibility 8 miles    
Events      
Averages and records for this station are not official NWS values.
T = Trace of Precipitation, MM = Missing Value Source: NWS Daily Summary

Daily Weather History Graph

Daily Weather History Graph

Search for Another Location

Airport:

Trip Planner

Search our weather history database for the weather conditions in past years. The results will help you decide how hot, cold, wet, or windy it might be!

Date:

Astronomy

Jan. 14, 2014 Rise Set
Actual Time 7:34 AM PST 4:25 PM PST
Civil Twilight 6:59 AM PST 5:00 PM PST
Nautical Twilight 6:21 AM PST 5:38 PM PST
Astronomical Twilight 5:44 AM PST 6:15 PM PST
Moon 3:37 PM PST (1/14) 6:10 AM PST (1/14)
Length of Visible Light 10h 00m
Length of Day
8h 50m
Waxing Gibbous, 98% of the Moon is Illuminated
Jan 14
Waxing Gibbous
Jan 15
Full
Jan 23
Last Quarter
Jan 30
New
Feb 6
First Quarter

Hourly Weather History & Observations

Time (PST) Temp. Windchill Dew Point Humidity Pressure Visibility Wind Dir Wind Speed Gust Speed Precip Events Conditions
12:38 AM 33.8 °F 26.4 °F 32.0 °F 93% 30.53 in 10.0 mi SW 9.2 mph - N/A   Scattered Clouds
1:44 AM 33.8 °F 26.4 °F 32.0 °F 93% 30.54 in 10.0 mi SW 9.2 mph - N/A   Overcast
1:58 AM 34.0 °F 25.5 °F 33.4 °F 98% 30.55 in 10.0 mi SSW 11.5 mph - N/A   Overcast
2:32 AM 35.6 °F 27.5 °F 33.8 °F 93% 30.56 in 10.0 mi SSW 11.5 mph - N/A   Overcast
2:59 AM 35.6 °F 28.6 °F 33.8 °F 93% 30.56 in 10.0 mi SW 9.2 mph - N/A   Overcast
3:55 AM 35.1 °F 31.0 °F 34.5 °F 98% 30.58 in 10.0 mi SSE 4.6 mph - N/A   Overcast
4:55 AM 35.4 °F 29.7 °F 34.5 °F 97% 30.59 in 10.0 mi SE 6.9 mph - N/A   Overcast
5:55 AM 34.5 °F 28.6 °F 33.8 °F 97% 30.60 in 10.0 mi SSE 6.9 mph - N/A   Overcast
6:55 AM 34.0 °F - 33.1 °F 96% 30.61 in 10.0 mi SSW 2.3 mph - N/A   Mostly Cloudy
7:58 AM 33.8 °F - 32.0 °F 93% 30.63 in 8.0 mi Variable 1.2 mph - N/A   Overcast
8:58 AM 33.8 °F - 33.6 °F 99% 30.66 in 10.0 mi South 2.3 mph - N/A   Overcast
9:58 AM 35.2 °F 30.3 °F 34.7 °F 98% 30.66 in 10.0 mi South 5.8 mph - N/A   Overcast
10:48 AM 37.4 °F 31.4 °F 35.6 °F 93% 30.57 in 10.0 mi South 8.1 mph - N/A   Overcast
10:53 AM 37.4 °F 31.4 °F 35.6 °F 93% 30.57 in 10.0 mi South 8.1 mph - N/A   Overcast
10:58 AM 38.5 °F 32.1 °F 36.1 °F 91% 30.63 in 10.0 mi South 9.2 mph - N/A   Overcast
11:13 AM 39.2 °F 34.2 °F 37.4 °F 93% 30.56 in 10.0 mi South 6.9 mph - N/A   Mostly Cloudy
11:23 AM 41.0 °F 34.7 °F 37.4 °F 87% 30.56 in 10.0 mi South 10.4 mph - N/A   Scattered Clouds
11:40 AM 42.8 °F 38.0 °F 37.4 °F 81% 30.56 in 10.0 mi South 8.1 mph - N/A   Partly Cloudy
11:53 AM 42.8 °F 37.5 °F 37.4 °F 81% 30.57 in 10.0 mi South 9.2 mph - N/A   Partly Cloudy
11:58 AM 42.1 °F 37.1 °F 36.7 °F 81% 30.63 in 10.0 mi South 8.1 mph - 0.00 in   Partly Cloudy
12:58 PM 43.0 °F 38.8 °F 36.5 °F 78% 30.61 in 10.0 mi South 6.9 mph - N/A   Clear
1:58 PM 44.1 °F 38.6 °F 36.7 °F 75% 30.59 in 10.0 mi South 10.4 mph - N/A   Partly Cloudy
2:58 PM 44.4 °F 40.0 °F 36.9 °F 75% 30.59 in 10.0 mi SSW 8.1 mph - N/A   Clear
3:58 PM 42.8 °F 39.3 °F 35.6 °F 76% 30.59 in 10.0 mi South 5.8 mph - N/A   Clear
4:49 PM 39.2 °F - 33.8 °F 81% 30.52 in 10.0 mi Calm Calm - N/A   Clear
4:58 PM 39.0 °F - 34.0 °F 82% 30.59 in 10.0 mi Calm Calm - 0.00 in   Clear
5:03 PM 39.2 °F - 33.8 °F 81% 30.52 in 10.0 mi Calm Calm - N/A   Clear
5:16 PM 39.2 °F - 32.0 °F 75% 30.52 in 10.0 mi WSW 2.3 mph - N/A   Clear
5:27 PM 37.4 °F 34.9 °F 32.0 °F 81% 30.51 in 10.0 mi SSW 3.5 mph - N/A   Clear
5:58 PM 38.1 °F 34.6 °F 33.4 °F 83% 30.57 in 10.0 mi South 4.6 mph - 0.00 in   Clear
6:58 PM 33.6 °F - 31.5 °F 92% 30.57 in 10.0 mi SE 2.3 mph - N/A   Clear
7:58 PM 32.7 °F - 30.9 °F 93% 30.58 in 10.0 mi ESE 2.3 mph - N/A   Clear
8:04 PM 32.0 °F - 32.0 °F 100% 30.48 in 10.0 mi SE 2.3 mph - N/A   Clear
8:16 PM 32.0 °F 28.7 °F 32.0 °F 100% 30.48 in 10.0 mi ESE 3.5 mph - N/A   Clear
8:58 PM 33.8 °F - 32.2 °F 94% 30.55 in 7.0 mi SSE 1.2 mph - 0.00 in   Clear
9:25 PM 32.0 °F - 32.0 °F 100% 30.45 in 1.8 mi SE 2.3 mph - N/A   Clear
9:26 PM 32.0 °F - 32.0 °F 100% 30.45 in 1.5 mi SE 2.3 mph - N/A   Clear
9:28 PM 32.0 °F - 32.0 °F 100% 30.46 in 1.0 mi ESE 1.2 mph - N/A   Clear
9:29 PM 32.0 °F - 32.0 °F 100% 30.46 in 1.0 mi Calm Calm - N/A   Clear
9:30 PM 32.0 °F - 32.0 °F 100% 30.45 in 0.8 mi Calm Calm - N/A   Clear
9:32 PM 32.0 °F - 32.0 °F 100% 30.45 in 0.8 mi Calm Calm - N/A   Clear
9:35 PM 32.0 °F - 32.0 °F 100% 30.45 in 0.8 mi SSE 2.3 mph - N/A   Clear
9:36 PM 32.0 °F 28.7 °F 30.2 °F 93% 30.45 in 0.8 mi SSE 3.5 mph - N/A   Clear
9:38 PM 32.0 °F 28.7 °F 30.2 °F 93% 30.45 in 1.0 mi SSE 3.5 mph - N/A   Clear
9:39 PM 32.0 °F 27.5 °F 30.2 °F 93% 30.45 in 1.2 mi SSE 4.6 mph - N/A   Clear
9:41 PM 32.0 °F 26.4 °F 30.2 °F 93% 30.44 in 1.8 mi SSE 5.8 mph - N/A   Clear
9:42 PM 32.0 °F 26.4 °F 30.2 °F 93% 30.44 in 2.5 mi SSE 5.8 mph - N/A   Clear
9:44 PM 32.0 °F 26.4 °F 30.2 °F 93% 30.44 in 4.0 mi SSE 5.8 mph - N/A   Clear
9:58 PM 32.0 °F 28.7 °F 30.9 °F 96% 30.52 in 10.0 mi South 3.5 mph - 0.00 in   Clear
10:58 PM 34.3 °F - 32.5 °F 93% 30.52 in 10.0 mi Calm Calm - N/A   Clear
11:31 PM 32.0 °F - 32.0 °F 100% 30.43 in 10.0 mi ESE 2.3 mph - N/A   Clear
11:41 PM 32.0 °F 28.7 °F 32.0 °F 100% 30.43 in 9.0 mi SE 3.5 mph - N/A   Clear
11:58 PM 31.8 °F - 30.2 °F 94% 30.50 in 7.0 mi South 2.3 mph - 0.00 in   Clear